Location: Newark
(49.3808°N, 3.1844°E)
Time: 11:36:53
(UTC+00:00)

Vanguard 1 Rocket - Pass Details

Date: 24 November 2019
Orbit: 650 x 4226 km, 34.3° (Epoch: 11 December)

Event Time Altitude Azimuth Distance (km) Brightness Sun altitude
Rises 03:07:49 0° 233° (SW) 3,214 - -38.9°
Reaches altitude 10° 03:11:39 10° 204° (SSW) 2,082 - -38.3°
Maximum altitude 03:13:37 13° 177° (S) 1,872 - -38.0°
Drops below altitude 10° 03:15:34 10° 150° (SSE) 2,056 - -37.7°
Exits shadow 03:17:05 - 135° (SE) 2,417 9.9 -37.4°
Sets 03:19:18 0° 120° (ESE) 3,134 10.7 -37.1°
